EW0538 Weather Reports


Display with metric or nautical units.
time (UTC)temp
F
wind
direction
speed
MPH
gust
MPH
rain 1hr
in
rain 24hr
in
rain mn
in
humidity
%
barometer
mb
20260508010801 61 357 3.0 9.0 0.00 0.00 0.00 36 1012.5
20260508005801 62 8 3.0 9.0 0.00 0.00 0.00 34 1012.3
20260508004806 62 4 2.0 15.0 0.00 0.00 0.00 33 1012.3
20260508003755 63 34 3.0 15.0 0.00 0.00 0.00 31 1012.4
20260508002810 63 342 4.0 9.0 0.00 0.00 0.00 30 1012.3
20260508001815 63 314 3.0 10.0 0.00 0.00 0.00 32 1012.2
20260508000825 64 354 3.0 13.0 0.00 0.00 0.00 31 1012.3
20260507234700 64 6 1.0 4.0 0.00 0.00 0.00 32 1012.1
20260507233635 64 20 1.0 6.0 0.00 0.00 0.00 31 1012.2
20260507232640 65 250 1.0 6.0 0.00 0.00 0.00 31 1012.4
20260507231631 65 25 0.0 0.0 0.00 0.00 0.00 30 1012.5
20260507230645 65 274 0.0 6.0 0.00 0.00 0.00 30 1012.6
20260507225705 65 4 1.0 1.0 0.00 0.00 0.00 32 1012.6
20260507224648 64 1 1.0 9.0 0.00 0.00 0.00 31 1012.7
20260507223701 64 47 2.0 7.0 0.00 0.00 0.00 33 1012.8
20260507222627 64 334 1.0 7.0 0.00 0.00 0.00 33 1012.9
20260507221608 64 324 2.0 7.0 0.00 0.00 0.00 33 1013.2
20260507220549 63 346 3.0 8.0 0.00 0.00 0.00 33 1013.4
20260507212254 65 321 3.0 10.0 0.00 0.00 0.00 30 1014.3
20260507211251 65 316 3.0 10.0 0.00 0.00 0.00 31 1014.6
20260507210223 65 27 1.0 5.0 0.00 0.00 0.00 31 1014.9
20260507205246 63 284 3.0 9.0 0.00 0.00 0.00 31 1015.3
20260507204217 62 33 2.0 9.0 0.00 0.00 0.00 32 1015.6
20260507203207 63 9 2.0 8.0 0.00 0.00 0.00 31 1015.9
20260507202214 64 266 0.0 5.0 0.00 0.00 0.00 31 1016.1
20260507201142 63 250 0.0 0.0 0.00 0.00 0.00 31 1016.3
20260507200133 63 243 1.0 4.0 0.00 0.00 0.00 32 1016.7
20260507195137 61 22 0.0 2.0 0.00 0.00 0.00 32 1016.8
20260507194104 61 170 0.0 0.0 0.00 0.00 0.00 32 1017.1
20260507193050 60 150 1.0 3.0 0.00 0.00 0.00 33 1017.3
20260507192109 59 28 1.0 6.0 0.00 0.00 0.00 34 1017.6
20260507191113 59 105 1.0 4.0 0.00 0.00 0.00 34 1017.9
20260507190123 58 146 0.0 2.0 0.00 0.00 0.00 34 1018.0
20260507185117 57 281 0.0 2.0 0.00 0.00 0.00 36 1018.4
20260507182941 56 294 0.0 0.0 0.00 0.00 0.00 36 1018.9
20260507180839 54 40 0.0 4.0 0.00 0.00 0.00 36 1019.4
20260507175847 54 253 0.0 5.0 0.00 0.00 0.00 37 1019.5
20260507173721 52 321 1.0 4.0 0.00 0.00 0.00 39 1019.9
20260507172718 52 358 1.0 6.0 0.00 0.00 0.00 38 1020.0
20260507171716 51 8 1.0 6.0 0.00 0.00 0.00 41 1020.2
20260507170653 50 331 1.0 5.0 0.00 0.00 0.00 41 1020.4
20260507165659 50 9 2.0 5.0 0.00 0.00 0.00 42 1020.4
20260507164649 50 351 3.0 7.0 0.00 0.00 0.00 42 1020.7
20260507163649 50 27 2.0 7.0 0.00 0.00 0.00 43 1020.9
20260507162637 49 353 2.0 7.0 0.00 0.00 0.00 44 1021.1
20260507160510 46 40 0.0 4.0 0.00 0.00 0.00 44 1021.4
20260507155514 45 293 0.0 4.0 0.00 0.00 0.00 44 1021.8
20260507154529 44 33 0.0 3.0 0.00 0.00 0.00 48 1022.1
20260507153544 44 13 1.0 4.0 0.00 0.00 0.00 48 1022.5
20260507152600 44 355 0.0 2.0 0.00 0.00 0.00 49 1022.8
20260507151623 43 163 0.0 2.0 0.00 0.00 0.00 51 1023.0
20260507150554 41 121 0.0 0.0 0.00 0.00 0.00 55 1023.5
20260507144349 40 346 0.0 0.0 0.00 0.00 0.00 59 1023.7
20260507143319 38 88 0.0 0.0 0.00 0.00 0.00 64 1023.8
20260507142249 38 124 0.0 0.0 0.00 0.01 0.00 66 1023.8
20260507141309 36 134 0.0 0.0 0.00 0.02 0.00 68 1023.9
20260507135108 34 345 0.0 0.0 0.00 0.02 0.00 72 1023.8
20260507134038 34 354 0.0 0.0 0.00 0.02 0.00 74 1023.8
20260507133054 33 120 0.0 0.0 0.00 0.02 0.00 78 1023.6
20260507132042 31 120 0.0 0.0 0.00 0.02 0.00 87 1023.5
20260507131007 28 120 0.0 0.0 0.00 0.02 0.00 91 1023.0
20260507130008 27 131 0.0 0.0 0.00 0.02 0.00 93 1022.8
20260507080708 27 134 0.0 0.0 0.00 0.02 0.00 88 1022.8
20260507075657 28 134 0.0 0.0 0.00 0.02 0.00 86 1022.8
20260507074656 28 134 0.0 0.0 0.00 0.02 0.00 85 1022.8
20260507072453 29 134 0.0 0.0 0.00 0.02 0.00 83 1022.8
20260507071505 29 131 0.0 0.0 0.00 0.02 0.00 85 1022.6
20260507070450 29 61 0.0 0.0 0.00 0.02 0.00 87 1022.5
20260507064313 30 319 0.0 0.0 0.00 0.02 0.00 84 1022.5
20260507062207 32 319 0.0 0.0 0.00 0.02 0.00 77 1022.2
20260507055021 31 39 0.0 0.0 0.00 0.02 0.02 81 1021.7
20260507053945 31 294 0.0 0.0 0.00 0.02 0.02 83 1021.4
20260507052951 31 294 0.0 0.0 0.00 0.02 0.02 80 1021.3
20260507050923 32 294 0.0 0.0 0.00 0.02 0.02 78 1021.5
20260507045859 32 308 0.0 0.0 0.00 0.02 0.02 77 1021.2
20260507044834 33 307 0.0 0.0 0.00 0.02 0.02 75 1021.2
20260507042727 34 240 0.0 0.0 0.00 0.02 0.02 74 1020.9
20260507041722 35 240 0.0 0.0 0.00 0.02 0.02 71 1020.6
20260507040730 36 328 0.0 0.0 0.00 0.02 0.02 70 1020.5
20260507035718 36 122 0.0 2.0 0.00 0.02 0.02 71 1020.2
20260507034717 36 192 0.0 1.0 0.00 0.02 0.02 69 1020.0
20260507033710 37 121 0.0 2.0 0.00 0.02 0.02 68 1019.8
20260507032701 37 145 0.0 3.0 0.00 0.02 0.02 66 1019.4
20260507031705 37 164 0.0 2.0 0.00 0.02 0.02 67 1018.9
20260507030713 38 145 0.0 0.0 0.00 0.02 0.02 65 1018.7
20260507024531 41 212 0.0 0.0 0.00 0.02 0.02 55 1018.1
20260507023533 42 213 0.0 0.0 0.00 0.02 0.02 50 1018.0
20260507022523 44 252 0.0 0.0 0.00 0.02 0.02 46 1017.6
20260507021539 45 243 0.0 2.0 0.00 0.02 0.02 42 1017.4
20260507020527 46 290 0.0 5.0 0.00 0.02 0.02 39 1017.1
20260507015454 47 342 0.0 3.0 0.00 0.02 0.02 37 1016.9
20260507014451 48 340 0.0 5.0 0.00 0.02 0.02 35 1016.8
20260507013453 50 278 1.0 5.0 0.00 0.02 0.02 32 1016.5